KD4PYR Weather Reports


Display with metric or nautical units.
time (UTC)temp
F
wind
direction
speed
MPH
gust
MPH
rain 1hr
in
rain 24hr
in
rain mn
in
humidity
%
barometer
mb
20260831094838 73 196 1.0 4.0 0.00 0.00 0.00 78 1019.5
20260831093830 73 194 0.0 3.0 0.00 0.00 0.00 78 1019.5
20260831092823 73 194 0.0 0.0 0.00 0.00 0.00 79 1019.5
20260831091838 73 194 0.0 0.0 0.00 0.00 0.00 79 1019.6
20260831090829 74 194 0.0 1.0 0.00 0.00 0.00 78 1019.6
20260831085829 74 194 0.0 1.0 0.00 0.00 0.00 78 1019.5
20260831084829 74 194 0.0 1.0 0.00 0.00 0.00 78 1019.2
20260831083818 74 194 0.0 3.0 0.00 0.00 0.00 78 1019.1
20260831082858 74 194 1.0 3.0 0.00 0.00 0.00 78 1018.9
20260831081832 74 194 0.0 2.0 0.00 0.00 0.00 78 1019.0
20260831080823 74 194 2.0 4.0 0.00 0.00 0.00 78 1019.0
20260831075826 74 194 0.0 4.0 0.00 0.00 0.00 77 1018.9
20260831074829 74 160 1.0 4.0 0.00 0.00 0.00 77 1018.8
20260831073848 74 179 1.0 3.0 0.00 0.00 0.00 77 1019.0
20260831072818 74 178 1.0 5.0 0.00 0.00 0.00 77 1019.0
20260831071855 74 178 0.0 2.0 0.00 0.00 0.00 77 1019.2
20260831070825 74 178 0.0 2.0 0.00 0.00 0.00 78 1019.4
20260831065830 74 178 0.0 2.0 0.00 0.00 0.00 77 1019.6
20260831064831 74 178 0.0 3.0 0.00 0.00 0.00 77 1019.5
20260831063823 74 178 0.0 1.0 0.00 0.00 0.00 77 1019.6
20260831062816 74 178 0.0 0.0 0.00 0.00 0.00 78 1019.7
20260831061834 74 179 0.0 0.0 0.00 0.00 0.00 78 1019.7
20260831060825 74 178 0.0 0.0 0.00 0.00 0.00 77 1019.7
20260831055827 75 179 0.0 0.0 0.00 0.00 0.00 76 1019.8
20260831054830 75 179 0.0 0.0 0.00 0.00 0.00 76 1019.9
20260831053822 75 179 0.0 0.0 0.00 0.00 0.00 76 1019.8
20260831052839 75 178 0.0 0.0 0.00 0.00 0.00 76 1019.7
20260831051830 75 178 0.0 0.0 0.00 0.00 0.00 76 1019.8
20260831050846 75 179 0.0 1.0 0.00 0.00 0.00 77 1019.8
20260831045829 75 178 0.0 0.0 0.00 0.00 0.00 77 1019.7
20260831044832 75 178 0.0 1.0 0.00 0.00 0.00 78 1019.7
20260831043823 75 178 0.0 0.0 0.00 0.00 0.00 77 1019.8
20260831042814 75 179 0.0 0.0 0.00 0.00 0.00 78 1019.7
20260831041855 75 178 0.0 0.0 0.00 0.00 0.00 77 1019.8
20260831040850 75 178 0.0 0.0 0.00 0.00 0.00 76 1019.9
20260831035832 76 178 0.0 0.0 0.00 0.00 0.00 75 1019.9
20260831034837 76 178 0.0 0.0 0.00 0.00 0.00 74 1019.9
20260831033831 77 178 0.0 0.0 0.00 0.00 0.00 74 1019.9
20260831032824 77 178 0.0 1.0 0.00 0.00 0.00 73 1019.9
20260831031900 77 178 0.0 0.0 0.00 0.00 0.00 74 1019.9
20260831030829 76 178 0.0 0.0 0.00 0.00 0.00 74 1019.8
20260831025819 77 178 0.0 0.0 0.00 0.00 0.00 75 1020.0
20260831024821 76 178 0.0 0.0 0.00 0.00 0.00 75 1020.0
20260831023856 76 178 0.0 0.0 0.00 0.00 0.00 75 1020.1
20260831022833 77 178 0.0 0.0 0.00 0.00 0.00 76 1020.0
20260831021826 77 178 0.0 0.0 0.00 0.00 0.00 74 1019.9
20260831020817 77 179 0.0 0.0 0.00 0.00 0.00 74 1019.8
20260831015823 78 178 0.0 0.0 0.00 0.00 0.00 73 1019.8
20260831014845 78 179 0.0 0.0 0.00 0.00 0.00 72 1019.7
20260831013816 78 179 0.0 0.0 0.00 0.00 0.00 73 1019.7
20260831012835 79 178 0.0 0.0 0.00 0.00 0.00 73 1019.7
20260831011832 79 179 0.0 1.0 0.00 0.00 0.00 71 1019.5
20260831010822 79 178 0.0 0.0 0.00 0.00 0.00 72 1019.5
20260831005826 80 178 0.0 0.0 0.00 0.00 0.00 70 1019.5
20260831004850 80 179 0.0 0.0 0.00 0.00 0.00 68 1019.3
20260831003847 80 179 0.0 0.0 0.00 0.00 0.00 67 1019.3
20260831002845 81 178 0.0 0.0 0.00 0.00 0.00 66 1019.1
20260831001836 82 179 0.0 0.0 0.00 0.00 0.00 67 1019.1
20260831000826 82 179 0.0 1.0 0.00 0.00 0.00 62 1019.2
20260830235831 83 178 0.0 1.0 0.00 0.00 0.00 62 1019.1
20260830234902 83 179 0.0 3.0 0.00 0.00 0.00 62 1019.1
20260830233830 83 178 0.0 2.0 0.00 0.00 0.00 61 1018.9
20260830232819 84 178 1.0 3.0 0.00 0.00 0.00 60 1018.9
20260830231838 84 179 2.0 4.0 0.00 0.00 0.00 58 1018.9
20260830230827 85 167 1.0 5.0 0.00 0.00 0.00 58 1018.8
20260830225831 85 170 3.0 5.0 0.00 0.00 0.00 56 1018.8
20260830224834 85 152 3.0 6.0 0.00 0.00 0.00 55 1018.7
20260830223852 85 159 4.0 8.0 0.00 0.00 0.00 55 1018.6
20260830222824 86 190 2.0 6.0 0.00 0.00 0.00 56 1018.4
20260830221903 86 182 2.0 7.0 0.00 0.00 0.00 56 1018.5
20260830220833 86 155 2.0 8.0 0.00 0.00 0.00 56 1018.6
20260830215816 86 169 3.0 6.0 0.00 0.00 0.00 55 1018.8
20260830214816 86 169 4.0 8.0 0.00 0.00 0.00 55 1019.0
20260830213835 87 152 2.0 8.0 0.00 0.00 0.00 54 1019.1
20260830212826 87 159 2.0 7.0 0.00 0.00 0.00 54 1019.1
20260830211818 87 179 3.0 9.0 0.00 0.00 0.00 52 1019.2
20260830210834 87 201 4.0 8.0 0.00 0.00 0.00 52 1019.3
20260830205818 88 163 3.0 6.0 0.00 0.00 0.00 51 1019.3
20260830204821 88 154 3.0 7.0 0.00 0.00 0.00 51 1019.4
20260830203838 88 182 2.0 9.0 0.00 0.00 0.00 52 1019.5
20260830202830 88 186 2.0 4.0 0.00 0.00 0.00 52 1019.5
20260830201848 89 188 2.0 6.0 0.00 0.00 0.00 49 1019.7
20260830200816 90 165 1.0 6.0 0.00 0.00 0.00 51 1019.9
20260830195821 90 197 2.0 7.0 0.00 0.00 0.00 48 1020.0
20260830194824 90 286 1.0 4.0 0.00 0.00 0.00 48 1020.1
20260830193819 90 314 1.0 6.0 0.00 0.00 0.00 50 1020.2
20260830192837 89 336 3.0 6.0 0.00 0.00 0.00 48 1020.4
20260830191834 88 304 2.0 6.0 0.00 0.00 0.00 50 1020.6
20260830190854 89 290 1.0 5.0 0.00 0.00 0.00 49 1020.8
20260830185834 89 315 3.0 8.0 0.00 0.00 0.00 50 1020.8
20260830184836 89 294 1.0 9.0 0.00 0.00 0.00 50 1021.0
20260830183829 88 283 1.0 7.0 0.00 0.00 0.00 52 1021.3
20260830182847 88 327 2.0 9.0 0.00 0.00 0.00 51 1021.5
20260830181847 89 244 1.0 4.0 0.00 0.00 0.00 49 1021.5
20260830180815 88 304 3.0 10.0 0.00 0.00 0.00 51 1021.6
20260830175816 88 328 1.0 10.0 0.00 0.00 0.00 48 1021.7
20260830174841 89 313 3.0 12.0 0.00 0.00 0.00 47 1021.7
20260830173833 89 302 4.0 10.0 0.00 0.00 0.00 52 1021.8
20260830172825 88 337 1.0 5.0 0.00 0.00 0.00 52 1021.9
20260830171842 87 267 4.0 7.0 0.00 0.00 0.00 57 1021.9
20260830170833 86 171 5.0 8.0 0.00 0.00 0.00 58 1022.0
20260830165815 87 160 2.0 7.0 0.00 0.00 0.00 57 1021.9
20260830164838 87 205 1.0 4.0 0.00 0.00 0.00 59 1021.9
20260830163832 86 206 1.0 5.0 0.00 0.00 0.00 60 1022.0
20260830162823 85 158 2.0 5.0 0.00 0.00 0.00 62 1021.9
20260830161841 84 173 4.0 12.0 0.00 0.00 0.00 63 1022.0
20260830160830 84 192 4.0 9.0 0.00 0.00 0.00 65 1022.0
20260830155831 83 167 4.0 6.0 0.00 0.00 0.00 67 1022.0
20260830154833 82 142 2.0 5.0 0.00 0.00 0.00 70 1022.0
20260830153826 81 172 2.0 5.0 0.00 0.00 0.00 72 1022.0
20260830152816 81 178 1.0 4.0 0.00 0.00 0.00 72 1021.9
20260830151834 80 161 2.0 7.0 0.00 0.00 0.00 72 1021.8
20260830150852 79 146 3.0 6.0 0.00 0.00 0.00 73 1021.7
20260830145831 78 171 1.0 6.0 0.00 0.00 0.00 75 1021.6
20260830144834 78 194 2.0 4.0 0.00 0.00 0.00 76 1021.5
20260830143824 77 178 2.0 6.0 0.00 0.00 0.00 76 1021.4
20260830142839 77 209 2.0 6.0 0.00 0.00 0.00 76 1021.4
20260830141830 76 176 2.0 8.0 0.00 0.00 0.00 77 1021.2
20260830140820 76 175 2.0 5.0 0.00 0.00 0.00 77 1021.0
20260830135822 75 161 2.0 6.0 0.00 0.00 0.00 77 1020.9
20260830134825 75 199 1.0 5.0 0.00 0.00 0.00 78 1020.9
20260830133819 74 199 0.0 4.0 0.00 0.00 0.00 78 1020.9
20260830132840 74 201 2.0 5.0 0.00 0.00 0.00 78 1021.0
20260830131833 73 204 2.0 6.0 0.00 0.00 0.00 78 1021.1
20260830130822 73 167 1.0 5.0 0.00 0.00 0.00 79 1021.2
20260830125825 73 142 1.0 5.0 0.00 0.00 0.00 78 1021.3
20260830124828 72 180 1.0 4.0 0.00 0.00 0.00 78 1021.2
20260830123847 72 181 1.0 5.0 0.00 0.00 0.00 78 1021.0
20260830122845 72 180 2.0 4.0 0.00 0.00 0.00 78 1020.9
20260830121816 71 180 2.0 6.0 0.00 0.00 0.00 78 1020.9
20260830120832 71 192 1.0 3.0 0.00 0.00 0.00 78 1020.8
20260830115834 70 192 1.0 4.0 0.00 0.00 0.00 79 1020.8
20260830114838 69 192 0.0 1.0 0.00 0.00 0.00 79 1020.7
20260830113837 69 194 1.0 4.0 0.00 0.00 0.00 80 1020.6
20260830112835 68 185 0.0 0.0 0.00 0.00 0.00 80 1020.6
20260830111856 67 185 0.0 0.0 0.00 0.00 0.00 81 1020.5
20260830110851 67 185 0.0 0.0 0.00 0.00 0.00 81 1020.6
20260830105816 67 185 0.0 0.0 0.00 0.00 0.00 81 1020.5
20260830104840 67 185 0.0 0.0 0.00 0.00 0.00 81 1020.4
20260830103832 67 185 0.0 0.0 0.00 0.00 0.00 80 1020.4
20260830102826 68 185 0.0 0.0 0.00 0.00 0.00 80 1020.5
20260830101819 68 185 0.0 0.0 0.00 0.00 0.00 80 1020.5
20260830100837 68 185 0.0 0.0 0.00 0.00 0.00 80 1020.5
20260830095839 68 185 0.0 0.0 0.00 0.00 0.00 80 1020.5